[[{"header":{"parameterUnit":"m.s-1","parameterCategory":1,"la1":30.2991,"la2":30.254,"lo1":-89.0895,"lo2":-89.0444,"dy":0.0017,"dx":0.0017,"nx":28,"ny":28,"refTime":"2025-02-11T03:00:00:Z","depth":0,"parameterNumber":2,"parameterNumberName":"U-component_of_WINDS"},"data":[0,0,0,0,0,0,0,0,0,0,0,0,0,0,0,0,0,0,0,0,0,0,0,0,0,0,0,0,0,0,0,0,0,0,0,0,0,0,0,0,0,0,0,0,0,0,0,0,0,0,0,0,0,0,0,0,0,0,-0.1471,-0.1471,0,-0.1483,-0.1483,-0.1483,-0.1497,-0.1497,-0.1497,-0.1497,-0.151,-0.151,-0.151,0,0,0,0,0,0,0,0,0,0,0,0,0,-0.1458,-0.1458,-0.1471,-0.1471,-0.1471,-0.1483,-0.1483,-0.1483,-0.1497,-0.1497,-0.1497,-0.1498,-0.151,-0.151,-0.151,0,0,0,0,0,0,0,0,0,0,0,0,0,-0.1466,-0.1458,-0.1471,-0.1479,-0.148,-0.1483,-0.1483,-0.1484,-0.1497,-0.1497,-0.1497,-0.1498,-0.151,-0.151,-0.151,-0.1506,0,0,-0.1511,-0.1511,0,0,0,0,0,0,0,0,-0.1466,-0.1467,-0.1478,-0.1479,-0.148,-0.1489,-0.1483,-0.1491,-0.1497,-0.149,-0.1497,-0.1498,-0.1503,-0.1503,-0.1505,-0.1506,-0.1507,-0.1511,-0.1511,-0.1511,-0.1511,0,0,0,0,0,0,0,-0.1465,-0.1466,-0.1476,-0.1478,-0.1479,-0.1482,-0.1484,-0.1485,-0.1495,-0.1491,-0.1492,-0.1493,-0.1503,-0.1505,-0.1505,-0.1507,-0.1511,-0.1511,-0.1511,-0.1511,-0.1505,-0.1505,0,0,0,0,0,0,-0.1464,-0.1466,-0.1475,-0.1476,-0.1473,-0.1482,-0.1484,-0.1485,-0.1495,-0.1496,-0.1493,-0.1494,-0.1504,-0.1505,-0.1506,-0.1501,-0.1511,-0.1511,-0.1511,-0.1506,-0.1505,-0.1505,0,0,0,0,0,0,-0.1463,-0.1464,-0.1475,-0.1471,-0.1473,-0.1482,-0.1484,-0.1486,-0.1487,-0.1496,-0.1498,-0.1493,-0.1505,-0.1506,-0.1506,-0.1502,-0.1511,-0.1512,-0.1506,-0.1505,-0.1505,-0.1492,0,0,0,0,0,0,-0.1463,-0.1464,-0.1463,-0.1471,-0.1473,-0.1474,-0.1484,-0.1486,-0.1488,-0.1489,-0.1497,-0.1498,-0.1505,-0.1505,-0.1506,-0.1502,-0.1512,-0.1506,-0.1506,-0.1505,-0.1493,-0.1491,-0.149,0,0,0,0,0,-0.1462,-0.1458,-0.1462,-0.1463,-0.1471,-0.1474,-0.1475,-0.1483,-0.1487,-0.1486,-0.1492,-0.1498,-0.1502,-0.1505,-0.1506,-0.1502,-0.1507,-0.1506,-0.1505,-0.1493,-0.1492,-0.149,0,0,0,0,0,0,-0.1449,-0.146,-0.1464,-0.1463,-0.1467,-0.1476,-0.1475,-0.148,-0.1484,-0.1485,-0.1494,-0.1496,-0.1495,-0.1499,-0.1502,-0.1499,-0.1505,-0.1505,-0.1496,-0.1494,-0.1493,-0.1492,-0.1512,0,0,0,0,0,-0.1446,-0.1447,-0.1457,-0.1454,-0.1457,-0.1465,-0.1467,-0.1472,-0.1477,-0.1479,-0.1485,-0.149,-0.1492,-0.1494,-0.1496,-0.1494,-0.1495,-0.1492,-0.149,-0.1489,-0.1488,-0.1487,-0.1485,-0.1503,-0.1503,-0.1503,0,0,-0.1439,-0.1445,-0.1446,-0.1452,-0.1456,-0.1457,-0.1467,-0.1468,-0.1469,-0.1479,-0.148,-0.1484,-0.149,-0.1489,-0.1488,-0.1492,-0.1484,-0.1488,-0.1487,-0.1487,-0.1486,-0.1484,-0.1483,-0.1502,-0.1502,-0.1502,0,0,-0.1428,-0.1433,-0.1432,-0.1436,-0.1442,-0.1448,-0.1448,-0.1456,-0.1459,-0.146,-0.1468,-0.1469,-0.1473,-0.1477,-0.1479,-0.147,-0.1476,-0.147,-0.1462,-0.1461,-0.146,-0.1459,-0.1455,-0.1453,-0.147,-0.147,-0.147,0,-0.1419,-0.1422,-0.143,-0.1431,-0.1433,-0.1443,-0.1442,-0.1446,-0.1452,-0.1454,-0.1458,-0.1463,-0.1468,-0.1467,-0.1465,-0.1467,-0.1466,-0.1469,-0.1459,-0.1458,-0.1457,-0.1454,-0.1452,-0.1469,-0.1469,-0.1469,-0.1469,0,-0.141,-0.1412,-0.141,-0.1417,-0.1419,-0.1418,-0.1427,-0.1428,-0.1434,-0.1439,-0.1439,-0.1445,-0.1449,-0.145,-0.1455,-0.145,-0.1452,-0.1458,-0.1464,-0.1455,-0.1452,-0.145,-0.1468,-0.1468,-0.1469,-0.1469,0,0,-0.1391,-0.1402,-0.1401,-0.1404,-0.1412,-0.1414,-0.1414,-0.1418,-0.1418,-0.1423,-0.1423,-0.1426,-0.1431,-0.1434,-0.144,-0.1439,-0.1431,-0.1444,-0.1445,-0.1441,-0.1425,-0.1421,-0.1419,-0.1435,-0.1435,-0.1434,-0.1425,0,-0.1381,-0.1382,-0.139,-0.1388,-0.1389,-0.1399,-0.1399,-0.1404,-0.1409,-0.1411,-0.1416,-0.1418,-0.1425,-0.1427,-0.1426,-0.1432,-0.1428,-0.1433,-0.1435,-0.1435,-0.1433,-0.1418,-0.1413,-0.1404,-0.1424,-0.1423,-0.1423,0,-0.137,-0.1373,-0.1372,-0.138,-0.1381,-0.138,-0.1385,-0.1387,-0.1392,-0.1396,-0.1399,-0.1406,-0.1406,-0.1413,-0.1413,-0.1417,-0.1418,-0.1421,-0.1421,-0.1421,-0.1428,-0.1417,-0.1401,-0.1399,-0.1422,-0.1422,-0.1422,0,-0.1355,-0.136,-0.136,-0.1362,-0.1371,-0.1371,-0.1375,-0.1381,-0.1383,-0.1386,-0.1388,-0.1391,-0.1393,-0.1396,-0.1404,-0.1408,-0.1403,-0.1411,-0.1406,-0.1406,-0.1405,-0.1405,-0.1388,-0.1406,-0.1406,-0.1406,-0.1406,0,-0.1343,-0.1342,-0.1354,-0.1353,-0.1352,-0.1361,-0.136,-0.1364,-0.1369,-0.137,-0.1379,-0.138,-0.1389,-0.1391,-0.1397,-0.1396,-0.1397,-0.14,-0.1402,-0.1399,-0.1399,-0.14,-0.1401,-0.1406,-0.1406,-0.1406,-0.1406,0,-0.1327,-0.1335,-0.1335,-0.1344,-0.1346,-0.1345,-0.1352,-0.1352,-0.1358,-0.1359,-0.1359,-0.1368,-0.1371,-0.1378,-0.1383,-0.1387,-0.1384,-0.1387,-0.1382,-0.1383,-0.1378,-0.1378,-0.1362,-0.136,-0.1379,-0.1379,-0.1379,0,-0.1319,-0.1318,-0.1327,-0.1328,-0.1331,-0.1333,-0.1335,-0.1344,-0.1346,-0.1352,-0.1351,-0.1354,-0.1357,-0.1361,-0.1367,-0.1371,-0.1374,-0.1367,-0.1374,-0.1372,-0.1373,-0.1373,-0.1373,-0.1366,-0.1366,-0.1365,-0.1365,0,-0.1303,-0.1307,-0.131,-0.1314,-0.1316,-0.1319,-0.1323,-0.1324,-0.1334,-0.1335,-0.1338,-0.134,-0.1344,-0.1347,-0.1352,-0.1356,-0.1362,-0.1363,-0.1362,-0.136,-0.1357,-0.1358,-0.1378,-0.1363,-0.1364,-0.1364,-0.1364,-0.1364,-0.1291,-0.1291,-0.1296,-0.1299,-0.1303,-0.1307,-0.1307,-0.1313,-0.1315,-0.1319,-0.1324,-0.1326,-0.1332,-0.1338,-0.1342,-0.1343,-0.1347,-0.1345,-0.1345,-0.1344,-0.1343,-0.1357,-0.1344,-0.1344,-0.1344,-0.1344,-0.1344,0,-0.1276,-0.128,-0.1282,-0.1288,-0.129,-0.1296,-0.13,-0.1301,-0.1303,-0.1308,-0.131,-0.1313,-0.1316,-0.1323,-0.1326,-0.1326,-0.1329,-0.1327,-0.1327,-0.1327,-0.134,-0.134,-0.1324,-0.1324,-0.1324,-0.1324,-0.1324,-0.1324,-0.1268,-0.1268,-0.1272,-0.1274,-0.1278,-0.128,-0.1282,-0.1285,-0.1289,-0.1292,-0.1294,-0.1299,-0.1304,-0.1308,-0.1311,-0.1313,-0.1313,-0.131,-0.1313,-0.1324,-0.1326,-0.1328,-0.1329,-0.131,-0.131,-0.13,-0.13,-0.13]},{"header":{"parameterUnit":"m.s-1","parameterCategory":1,"la1":30.2991,"la2":30.254,"lo1":-89.0895,"lo2":-89.0444,"dy":0.0017,"dx":0.0017,"nx":28,"ny":28,"refTime":"2025-02-11T03:00:00:Z","depth":0,"parameterNumber":3,"parameterNumberName":"V-component_of_WINDS"},"data":[0,0,0,0,0,0,0,0,0,0,0,0,0,0,0,0,0,0,0,0,0,0,0,0,0,0,0,0,0,0,0,0,0,0,0,0,0,0,0,0,0,0,0,0,0,0,0,0,0,0,0,0,0,0,0,0,0,0,3.562,3.5621,0,3.5717,3.5718,3.5719,3.565,3.5647,3.5644,3.5641,3.5746,3.5752,3.5757,0,0,0,0,0,0,0,0,0,0,0,0,0,3.5383,3.5387,3.562,3.5621,3.5622,3.5717,3.5718,3.5719,3.5651,3.5647,3.5643,3.5639,3.5744,3.5751,3.5758,0,0,0,0,0,0,0,0,0,0,0,0,0,3.5483,3.5389,3.5619,3.5599,3.5598,3.5716,3.5718,3.572,3.5651,3.5647,3.5642,3.5638,3.5742,3.575,3.5759,3.5904,0,0,3.5785,3.5788,0,0,0,0,0,0,0,0,3.5478,3.5492,3.5601,3.5601,3.56,3.5666,3.5673,3.5782,3.5653,3.5631,3.5641,3.5635,3.5724,3.5733,3.5762,3.5909,3.5913,3.5785,3.5791,3.5794,3.5797,0,0,0,0,0,0,0,3.5471,3.5488,3.5658,3.5602,3.5602,3.5588,3.5597,3.5693,3.5703,3.5633,3.5628,3.564,3.5723,3.5754,3.5764,3.5915,3.5785,3.5793,3.5798,3.5801,3.619,3.6195,0,0,0,0,0,0,3.5465,3.5482,3.5655,3.5661,3.5526,3.5596,3.5606,3.565,3.5701,3.5704,3.5644,3.5637,3.5742,3.5754,3.5767,3.5943,3.5794,3.5802,3.5807,3.6185,3.6192,3.6197,0,0,0,0,0,0,3.546,3.5481,3.5651,3.557,3.5591,3.5605,3.5655,3.5654,3.5685,3.571,3.5712,3.5674,3.5738,3.5755,3.5871,3.5946,3.5806,3.5814,3.6179,3.6187,3.6194,3.6294,0,0,0,0,0,0,3.5453,3.5479,3.5532,3.5572,3.5596,3.5751,3.5659,3.5659,3.5699,3.5691,3.5738,3.5742,3.5736,3.5859,3.588,3.5955,3.582,3.6172,3.6183,3.6192,3.6284,3.6304,3.6322,0,0,0,0,0,3.5445,3.5557,3.5535,3.5557,3.5662,3.5755,3.5769,3.5759,3.5706,3.5761,3.5777,3.574,3.5934,3.5871,3.5894,3.5973,3.6168,3.618,3.6191,3.6276,3.63,3.6321,0,0,0,0,0,0,3.5527,3.5562,3.5538,3.5666,3.5708,3.5743,3.5812,3.5785,3.5844,3.5833,3.582,3.5832,3.5954,3.5975,3.5904,3.6118,3.6043,3.606,3.6099,3.6123,3.6141,3.6134,3.5827,0,0,0,0,0,3.5559,3.563,3.5658,3.5768,3.579,3.5798,3.5838,3.5827,3.5871,3.5889,3.5913,3.5959,3.6031,3.6078,3.6145,3.6288,3.6299,3.6354,3.6372,3.6388,3.6402,3.6482,3.6508,3.6236,3.6236,3.6235,0,0,3.5628,3.5656,3.5701,3.5785,3.5816,3.5893,3.5813,3.5896,3.5954,3.5902,3.6012,3.6033,3.6084,3.6214,3.6273,3.6236,3.648,3.6403,3.6414,3.6421,3.6497,3.6523,3.6546,3.6244,3.6242,3.6241,0,0,3.5791,3.5818,3.5914,3.5948,3.5996,3.6002,3.6025,3.6066,3.6077,3.6187,3.6151,3.6221,3.6344,3.6382,3.6418,3.6601,3.657,3.6624,3.6721,3.68,3.6821,3.684,3.6907,3.6931,3.6639,3.6639,3.6639,0,3.587,3.5981,3.5967,3.6054,3.6094,3.605,3.6149,3.6184,3.6252,3.6282,3.6239,3.6395,3.6426,3.6566,3.6611,3.6641,3.667,3.6618,3.6819,3.6838,3.6855,3.6919,3.6944,3.6645,3.6644,3.6644,3.6643,0,3.6077,3.6155,3.6227,3.6294,3.6342,3.6435,3.6438,3.6489,3.6476,3.6486,3.6602,3.6638,3.6713,3.6746,3.6733,3.6886,3.6862,3.682,3.6743,3.6888,3.6948,3.6972,3.6654,3.6652,3.665,3.6648,0,0,3.629,3.6352,3.6378,3.641,3.6462,3.6524,3.6617,3.6689,3.6734,3.6785,3.6864,3.6971,3.6933,3.6974,3.6966,3.7035,3.7181,3.6985,3.6986,3.7021,3.7355,3.7386,3.7414,3.7161,3.7166,3.717,3.7351,0,3.6457,3.6616,3.6609,3.6759,3.6833,3.6796,3.6877,3.6921,3.6935,3.7002,3.7018,3.7094,3.7038,3.7063,3.7129,3.7149,3.7248,3.7136,3.7237,3.7241,3.7225,3.7445,3.7478,3.7647,3.7374,3.7378,3.7381,0,3.6671,3.6729,3.6886,3.6932,3.6962,3.7035,3.7103,3.7167,3.7217,3.7223,3.7271,3.7253,3.7351,3.7273,3.7409,3.7333,3.7375,3.7392,3.7398,3.7407,3.7319,3.7461,3.77,3.7726,3.7417,3.7414,3.7412,0,3.6813,3.693,3.704,3.7068,3.7123,3.7176,3.7202,3.7247,3.7293,3.7354,3.7383,3.7455,3.7495,3.7553,3.7556,3.7499,3.7695,3.7616,3.7704,3.7704,3.7746,3.7743,3.7996,3.7773,3.7773,3.7772,3.7771,0,3.6999,3.7097,3.7105,3.7172,3.7283,3.7276,3.7386,3.7408,3.7449,3.7523,3.7496,3.7566,3.7566,3.7639,3.7643,3.7757,3.7775,3.7784,3.7784,3.7786,3.7785,3.7813,3.7801,3.7779,3.7777,3.7776,3.7775,0,3.7174,3.7183,3.7301,3.7344,3.7358,3.7438,3.7477,3.7543,3.7556,3.765,3.7672,3.7693,3.7777,3.7787,3.7886,3.7889,3.8026,3.8013,3.8009,3.8007,3.8094,3.8086,3.8373,3.8411,3.8164,3.8166,3.8168,0,3.7291,3.7366,3.7419,3.7466,3.7495,3.7571,3.7617,3.7616,3.7666,3.7732,3.7791,3.7873,3.7938,3.8076,3.8101,3.8178,3.8167,3.8263,3.8178,3.818,3.817,3.8165,3.8174,3.8279,3.8281,3.8284,3.8285,0,3.75,3.7502,3.7569,3.764,3.7696,3.7752,3.7805,3.7845,3.7851,3.791,3.7996,3.8047,3.8149,3.8231,3.8308,3.8337,3.8314,3.8312,3.8337,3.834,3.8334,3.8339,3.8053,3.8305,3.8303,3.8302,3.8301,3.83,3.765,3.7716,3.7764,3.7842,3.7882,3.7932,3.7998,3.802,3.8091,3.8173,3.8169,3.8265,3.8318,3.8418,3.8453,3.853,3.8499,3.8534,3.8543,3.8551,3.8561,3.8323,3.8544,3.8543,3.8543,3.8543,3.8542,0,3.7858,3.7888,3.7959,3.8034,3.8096,3.8069,3.8127,3.8181,3.8265,3.8316,3.8382,3.8483,3.8564,3.8598,3.8679,3.8734,3.8726,3.8756,3.8751,3.8759,3.8583,3.8554,3.8761,3.8761,3.8761,3.8761,3.8761,3.8761,3.7972,3.8083,3.8092,3.8225,3.8255,3.8347,3.8383,3.8432,3.8472,3.8586,3.8654,3.8675,3.8721,3.8805,3.888,3.8888,3.892,3.8954,3.8958,3.8793,3.8771,3.875,3.8723,3.8961,3.8961,3.9127,3.9129,3.913]}]]